Home > Weather > Kolding > Past weeks

Flag for Denmark Past Weather in Kolding, Denmark — Yesterday and Last 2 Weeks

Now
43 °F

Quite cool.


Feels Like: 43 °F
Forecast: 49 / 68 °F
Wind: No wind

Location: Vamdrup

Current Time: May 27, 2016 at 4:30:11 AM

Latest Report: May 27, 2016 at 3:50 AM


Visibility: N/A

Pressure: 30.07 "Hg

Humidity: 93%

Dew Point: 41 °F

Location of KoldingLocation

Past Weather in Kolding — Graph

°F

Kolding Temperature Yesterday

Maximum temperature yesterday: 59 °F (at 7:20 PM)
Minimum temperature yesterday: 46 °F (at 11:50 PM)
Average temperature yesterday: 54 °F

High & Low Weather Summary for the Past Weeks

 TemperatureHumidityPressure
High72 °F (May 22, 2:50 PM)100% (May 13, 5:50 AM)30.07 "Hg (May 13, 5:50 AM)
Low39 °F (May 16, 2:20 AM)32% (May 13, 3:50 PM)29.62 "Hg (May 13, 2:50 PM)
Average54 °F82%29.85 "Hg
* Reported May 12 3:20 AM — May 27 3:20 AM, Kolding, Weather by CustomWeather, © 2016

Note: Actual official high and low records may vary slightly from our data, if they occured in-between our weather recording intervals... More about our weather records

Advertising

Kolding Weather History for the Previous 24 Hours

Scroll right to see more
 ConditionsComfort  
Time TempWeatherWind HumidityBarometerVisibility
3:20 AM
Fri, May 27
43 °FQuite cool.No wind100%30.07 "HgN/A
2:50 AM45 °FQuite cool.1 mph93%30.07 "HgN/A
2:20 AM46 °FCool.1 mph93%30.07 "HgN/A
1:50 AM46 °FCool.5 mph93%30.07 "HgN/A
1:20 AM46 °FCool.1 mph100%30.07 "HgN/A
12:50 AM46 °FCool.3 mph100%30.07 "HgN/A
12:20 AM46 °FCool.2 mph100%30.07 "HgN/A
11:50 PM
Thu, May 26
46 °FCool.3 mph100%30.07 "HgN/A
11:20 PM48 °FCool.2 mph94%30.07 "HgN/A
10:50 PM50 °FCool.No wind94%30.07 "HgN/A
10:20 PM52 °FCool.No wind94%30.07 "HgN/A
9:50 PM54 °FCool.1 mph94%30.07 "HgN/A
9:20 PM55 °FCool.3 mph88%30.07 "HgN/A
8:50 PM57 °FCool.3 mph82%30.07 "HgN/A
8:20 PM57 °FCool.5 mph82%30.04 "HgN/A
7:50 PM57 °FCool.6 mph88%30.04 "HgN/A
7:20 PM59 °FCool.7 mph82%30.04 "HgN/A
6:50 PM57 °FCool.7 mph88%30.04 "HgN/A
6:20 PM57 °FCool.7 mph88%30.07 "HgN/A
4:50 PM57 °FPartly sunny.9 mph88%30.07 "HgN/A
3:50 PM57 °FPartly sunny.8 mph88%30.07 "HgN/A
2:50 PM57 °FDrizzle. Partly sunny.7 mph94%30.04 "Hg3 mi
1:50 PM57 °FDrizzle. Partly sunny.9 mph94%30.04 "Hg2 mi
1:20 PM55 °FDrizzle. Partly sunny.9 mph94%30.04 "Hg3 mi
12:50 PM55 °FDrizzle. Low clouds.9 mph94%30.04 "Hg3 mi
11:50 AM57 °FDrizzle. Low clouds.9 mph94%30.04 "Hg1 mi
11:20 AM55 °FDrizzle. Low clouds.8 mph100%30.04 "Hg1 mi
10:50 AM55 °FDrizzle. Low clouds.8 mph100%30.04 "Hg1 mi
10:20 AM55 °FFog.7 mph94%30.04 "Hg1 mi
9:50 AM57 °FFog.9 mph88%30.04 "Hg2 mi
8:50 AM55 °FLow clouds.10 mph94%30.01 "HgN/A
7:50 AM55 °FLow clouds.7 mph94%30.01 "HgN/A
7:20 AM55 °FCool.7 mph88%30.01 "HgN/A
6:50 AM54 °FCool.6 mph94%30.01 "HgN/A
6:20 AM54 °FCool.6 mph88%30.01 "HgN/A
5:50 AM52 °FCool.5 mph94%30.01 "HgN/A
5:20 AM52 °FCool.5 mph94%30.01 "HgN/A
4:50 AM54 °FCool.6 mph88%30.01 "HgN/A
4:20 AM52 °FCool.6 mph94%30.01 "HgN/A
Weather by CustomWeather, © 2016

See weather overviewHow to use our weather pages